C/2023 V4 ( Camarasa-Duszanowicz )

Japanese version
Home page
Updated on September 16, 2024

---------------------------------------------------------------------

* Profile

Discovery Date November 5, 2023
Magnitude 18.7 mag
Discoverer Jordi Camarasa (Sabadell, Barcelona, Spain), Grzegorz Duszanowicz (Akersberga, Sweden)

* Pictures

* Orbital Elements

Epoch 2024 Oct. 17.0 TT = JDT 2460600.5
T 2024 May 30.36765 TT                                  Rudenko
q   1.1217377            (2000.0)            P               Q
z  -0.0008940      Peri.   50.85800     -0.02258954     -0.53610415
 +/-0.0000009      Node    66.32587     +0.35720255     -0.79267801
e   1.0010028      Incl.   67.13015     +0.93375374     +0.29026525
>From 1033 observations 2023 Nov. 5-2024 Aug. 30, mean residual 0".6.

* Finding Charts

* Magnitudes Graph

        m1 = 8.5 + 5 log d + 15.5 log r(t - 10)

---------------------------------------------------------------------

The orbital elements are published on M.P.E.C. 2024-R10.
The charts are made with StellaNavigator Ver.11 (AstroArts).
The magnitudes graphs are made with Comet for Windows.

---------------------------------------------------------------------

Copyright(C) Seiichi Yoshida (comet@aerith.net). All rights reserved.